Regional Weather Roundup
Issued by NWS Cleveland, OH

Home | Current Version | Previous Version | Graphics & Text | Print | Product List | Glossary On
Versions: 1 2 3 4 5 6 7 8 9 10 11 12 13 14 15 16 17 18 19 20 21 22 23 24 25 26 27 28 29 30 31 32 33 34 35 36 37 38 39 40 41 42 43 44 45 46 47 48 49 50
000
ASUS41 KCLE 300602
RWRCLE
OHIO REGIONAL WEATHER ROUNDUP
NATIONAL WEATHER SERVICE CLEVELAND, OH
200 AM EDT SAT JUL 30 2016

NOTE: "FAIR" INDICATES FEW OR NO CLOUDS BELOW 12,000 FEET WITH NO
SIGNIFICANT WEATHER AND/OR OBSTRUCTIONS TO VISIBILITY.

OHZ001>008-015>018-024>027-034-035-043-044-300700-
   NORTHWEST OHIO

CITY           SKY/WX    TMP DP  RH WIND       PRES   REMARKS
DEFIANCE       CLOUDY    72  68  87 NE8       29.94F
FINDLAY        CLOUDY    73  67  81 NE6       29.93S
TOLEDO EXPRESS CLOUDY    69  66  90 NE7       29.95F
TOLEDO EXEC    CLOUDY    73  68  84 NE7       29.96F
LIMA             N/A     72  70  94 MISG        N/A
$$

OHZ009>014-019>023-028>033-038-089-300700-
   NORTHEAST OHIO

CITY           SKY/WX    TMP DP  RH WIND       PRES   REMARKS
CLE-HOPKINS    CLOUDY    75  65  70 NE5       29.96F
CLE-LAKEFRONT  MOCLDY    75  65  70 E3        29.93F
CUY CO. ARPT   NOT AVBL
LORAIN-ELYRIA  CLOUDY    71  66  84 E3        29.94F
ASHTABULA      PTCLDY    65  65 100 CALM      29.97F
AKRON-CANTON   MOCLDY    69  66  90 NE5       29.95F FOG
WOOSTER        CLOUDY    66  64  93 SE3       29.95F FOG
MANSFIELD      MOCLDY    69  67  93 SE7       29.95F
YOUNGSTOWN     CLOUDY    68  66  93 NE5       29.96F
$$

OHZ042-051>053-060>062-070>072-077>081-300700-
  SOUTHWEST OHIO

CITY           SKY/WX    TMP DP  RH WIND       PRES   REMARKS
CINC-COVINGTON CLOUDY    70  69  97 CALM      29.93F
CINC-LUNKEN    CLOUDY    71  50  47 CALM      29.93F
HAMILTON       PTCLDY    71  69  93 CALM      29.93F
DAYTON         CLOUDY    70  69  97 S5        29.93F
WRIGHT-PAT AFB CLOUDY    70  70 100 NW3       29.92F
DAYTON GENERAL CLOUDY    71  67  87 S5        29.92F
WILMINGTON     MOCLDY    68  68 100 CALM      29.92F
$$

OHZ036-037-039>041-045>050-054>059-063>069-073>076-082>088-300700-
  CENTRAL AND SOUTHEAST OHIO

CITY           SKY/WX    TMP DP  RH WIND       PRES   REMARKS
COLUMBUS       LGT RAIN  71  69  93 S7        29.93S
OSU AIRPORT    CLOUDY    73  71  93 S8        29.93F
BOLTON FIELD   MOCLDY    71  70  97 SE6       29.94F
RICKENBACK AFB HVY RAIN  69  69  98 S8        29.93F
NEWARK         LGT RAIN  70  69  97 CALM      29.94S FOG
MARION         MOCLDY    69  65  86 CALM      29.94F
LANCASTER      LGT RAIN  71  70  96 CALM      29.94F
ZANESVILLE     PTCLDY    74  69  85 CALM      29.94S
NEW PHILLY     CLOUDY    71  67  87 CALM      29.95S FOG
$$




USA.gov is the U.S. government's official web portal to all federal, state and local government web resources and services.